| time (UTC) | temp F | wind direction | speed knots | gust knots | rain 1hr in | rain 24hr in | rain mn in | humidity % | barometer mb |
| 20260504231529 | 42 | 211 | 2.6 | 7.0 | 0.00 | 0.13 | 0.12 | 64 | 1007.2 |
| 20260504230029 | 43 | 95 | 2.6 | 7.8 | 0.01 | 0.13 | 0.12 | 62 | 1007.4 |
| 20260504224527 | 42 | 194 | 5.2 | 12.2 | 0.01 | 0.13 | 0.12 | 62 | 1007.3 |
| 20260504223027 | 43 | 163 | 4.3 | 9.6 | 0.03 | 0.13 | 0.12 | 62 | 1007.4 |
| 20260504221528 | 42 | 232 | 6.1 | 12.2 | 0.04 | 0.13 | 0.12 | 61 | 1007.7 |
| 20260504220037 | 42 | 229 | 5.2 | 19.1 | 0.04 | 0.12 | 0.11 | 63 | 1007.2 |
| 20260504214527 | 42 | 188 | 7.8 | 19.1 | 0.05 | 0.12 | 0.11 | 66 | 1007.0 |
| 20260504213027 | 41 | 227 | 6.1 | 13.9 | 0.05 | 0.11 | 0.10 | 71 | 1007.1 |
| 20260504211533 | 39 | 188 | 3.5 | 13.0 | 0.04 | 0.09 | 0.08 | 79 | 1007.6 |
| 20260504210025 | 38 | 272 | 0.0 | 4.3 | 0.04 | 0.08 | 0.07 | 86 | 1008.0 |
| 20260504204527 | 37 | 302 | 0.9 | 5.2 | 0.05 | 0.07 | 0.06 | 80 | 1008.4 |
| 20260504203028 | 37 | 210 | 0.0 | 4.3 | 0.05 | 0.06 | 0.05 | 82 | 1008.5 |
| 20260504201523 | 37 | 215 | 0.0 | 2.6 | 0.04 | 0.05 | 0.04 | 82 | 1008.3 |
| 20260504200023 | 36 | 190 | 0.0 | 9.6 | 0.03 | 0.04 | 0.03 | 84 | 1008.2 |
| 20260504194523 | 36 | 229 | 3.5 | 9.6 | 0.02 | 0.03 | 0.02 | 79 | 1008.1 |
| 20260504193025 | 36 | 251 | 1.7 | 11.3 | 0.00 | 0.01 | 0.00 | 79 | 1007.8 |
| 20260504191525 | 36 | 233 | 4.3 | 13.0 | 0.00 | 0.01 | 0.00 | 78 | 1007.6 |
| 20260504190022 | 36 | 213 | 3.5 | 11.3 | 0.00 | 0.01 | 0.00 | 79 | 1007.2 |
| 20260504184522 | 35 | 279 | 4.3 | 8.7 | 0.00 | 0.01 | 0.00 | 82 | 1007.1 |
| 20260504183023 | 35 | 229 | 0.0 | 7.0 | 0.00 | 0.01 | 0.00 | 87 | 1007.6 |
| 20260504181529 | 34 | 226 | 0.0 | 3.5 | 0.00 | 0.01 | 0.00 | 86 | 1007.7 |
| 20260504180022 | 35 | 190 | 0.0 | 6.1 | 0.00 | 0.01 | 0.00 | 84 | 1007.5 |
| 20260504174519 | 36 | 280 | 8.7 | 16.5 | 0.00 | 0.01 | 0.00 | 81 | 1006.6 |
| 20260504173017 | 38 | 302 | 3.5 | 12.2 | 0.00 | 0.01 | 0.00 | 79 | 1006.1 |
| 20260504171516 | 38 | 273 | 6.1 | 13.9 | 0.00 | 0.01 | 0.00 | 76 | 1005.9 |
| 20260504081513 | 38 | 302 | 1.7 | 8.7 | 0.00 | 0.01 | 0.00 | 70 | 1008.0 |
| 20260504044550 | 39 | 336 | 3.5 | 8.7 | 0.00 | 0.01 | 0.01 | 69 | 1007.9 |
| 20260504043045 | 39 | 280 | 1.7 | 9.6 | 0.00 | 0.01 | 0.01 | 73 | 1007.4 |
| 20260504041545 | 39 | 244 | 1.7 | 9.6 | 0.00 | 0.01 | 0.01 | 74 | 1007.3 |
| 20260504040047 | 39 | 267 | 5.2 | 12.2 | 0.00 | 0.01 | 0.01 | 73 | 1007.3 |
| 20260504034545 | 39 | 275 | 4.3 | 10.4 | 0.00 | 0.01 | 0.01 | 74 | 1007.2 |
| 20260504033051 | 40 | 275 | 0.0 | 13.0 | 0.00 | 0.01 | 0.01 | 71 | 1007.2 |
| 20260504031545 | 40 | 269 | 1.7 | 9.6 | 0.00 | 0.01 | 0.01 | 72 | 1006.7 |
| 20260504030049 | 38 | 214 | 4.3 | 18.2 | 0.00 | 0.01 | 0.01 | 79 | 1006.5 |
| 20260504024555 | 38 | 249 | 2.6 | 16.5 | 0.00 | 0.01 | 0.01 | 80 | 1006.2 |
| 20260504023045 | 39 | 283 | 2.6 | 14.8 | 0.00 | 0.01 | 0.01 | 76 | 1006.4 |
| 20260504021551 | 38 | 282 | 4.3 | 20.0 | 0.01 | 0.01 | 0.01 | 80 | 1006.1 |
| 20260504020048 | 38 | 198 | 7.0 | 18.2 | 0.01 | 0.01 | 0.01 | 79 | 1006.3 |
| 20260504014541 | 38 | 179 | 3.5 | 13.0 | 0.01 | 0.01 | 0.01 | 82 | 1005.8 |
| 20260504013047 | 38 | 283 | 7.0 | 16.5 | 0.01 | 0.01 | 0.01 | 80 | 1006.5 |
| 20260504011540 | 40 | 221 | 1.7 | 5.2 | 0.00 | 0.00 | 0.00 | 73 | 1007.2 |
| 20260504010037 | 42 | 225 | 0.9 | 8.7 | 0.00 | 0.00 | 0.00 | 68 | 1007.6 |
| 20260504004543 | 45 | 239 | 0.9 | 12.2 | 0.00 | 0.00 | 0.00 | 58 | 1007.0 |
| 20260504003036 | 47 | 203 | 2.6 | 6.1 | 0.00 | 0.00 | 0.00 | 53 | 1006.7 |
| 20260504001537 | 48 | 260 | 2.6 | 13.9 | 0.00 | 0.00 | 0.00 | 51 | 1006.4 |
| 20260504000035 | 50 | 206 | 2.6 | 15.6 | 0.00 | 0.00 | 0.00 | 49 | 1006.3 |
| 20260503234537 | 50 | 286 | 0.9 | 9.6 | 0.00 | 0.00 | 0.00 | 52 | 1006.2 |
| 20260503233035 | 47 | 244 | 2.6 | 11.3 | 0.00 | 0.00 | 0.00 | 53 | 1006.3 |